User: anonymous   Login
Location: Unspecified
(0.0000°N, 0.0000°E)
Time: 20:15:51
(UTC+00:00)
Language:

GEOEYE 1 - Orbit

View from above orbital plane
View from above orbital plane
View from above satellite
View from above satellite

Ground track
Ground track

The orbit data is extracted from the following two-line orbital elements,

1 33331U 08042A   15063.46394315  .00000743  00000-0  14931-3 0  9992
2 33331 098.1163 140.0570 0009672 018.1551 342.0001 14.64443892346801
Epoch (UTC): 04 March 2015 11:08:04
Eccentricity: 0.0009672
inclination: 98.1163°
perigee height: 672 km
apogee height: 685 km
right ascension of ascending node: 140.0570°
argument of perigee: 18.1551°
revolutions per day: 14.64443892
mean anomaly at epoch: 342.0001°
orbit number at epoch: 34680

The dashed part of the orbit path shows where the satellite is in the earth's shadow,  

DLR